Muskegon, MI

12:18 PM EDT on October 17, 2019 (GMT -0400)
Muskegon County

Weather History for KMKG - August, 2019

Change the Weather History Date:

Thursday, August 22, 2019

  Actual Average Record
Temperature  
Mean Temperature 70 °F 69 °F  
Max Temperature 79 °F 78 °F 92 °F (1947)
Min Temperature 62 °F 61 °F 42 °F (1907)
Degree Days  
Heating Degree Days 0 1  
Month to date heating degree days 0 5  
Since 1 June heating degree days 58 82  
Since 1 July heating degree days 1 16  
Cooling Degree Days 6 5  
Month to date cooling degree days 154 127  
Year to date cooling degree days 525 463  
Since 1 June cooling degree days 522 434  
Growing Degree Days 20 (Base 50)    
Moisture  
Dew Point 50 °F    
Average Humidity 54    
Maximum Humidity 84    
Minimum Humidity 32    
Precipitation  
Precipitation 0.00 in 0.10 in 1.24 in (2002)
Month to date precipitation 1.33 2.38  
Year to date precipitation 26.30 19.57  
Snow  
Snow 0.00 in 0.00 in - ()
Month to date snowfall 0.0 0.0  
Since 1 June snowfall 0.0 0.0  
Since 1 July snowfall 0.0 0.0  
Snow Depth 0.00 in    
Sea Level Pressure  
Sea Level Pressure 30.04 in    
Wind  
Wind Speed 7 mph ()    
Max Wind Speed 16 mph    
Max Gust Speed 21 mph    
Visibility 10.0 miles    
Events      
T = Trace of Precipitation, MM = Missing Value Source: Averaged Metar Reports

Daily Weather History Graph

Daily Weather History Graph

Search for Another Location

Airport or City:

Astronomy

Aug. 22, 2019 Rise Set
Actual Time 6:57 AM EDT 8:36 PM EDT
Civil Twilight 6:27 AM EDT 9:07 PM EDT
Nautical Twilight 5:51 AM EDT 9:43 PM EDT
Astronomical Twilight 5:12 AM EDT 10:22 PM EDT
Moon No Moon Rise 1:43 PM EDT (8/22)
Length of Visible Light 14h 39m
Length of Day
13h 38m
Waning Gibbous, 60% of the Moon is Illuminated
Aug 22
Waning Gibbous
Aug 23
Last Quarter
Aug 30
New
Sep 5
First Quarter
Sep 14
Full

Hourly Weather History & Observations

Time (EDT) Temp. Dew Point Humidity Pressure Visibility Wind Dir Wind Speed Gust Speed Precip Events Conditions
12:55 AM 64.0 °F 59.0 °F 84% 29.98 in 10.0 mi Calm Calm - N/A   Clear
1:55 AM 66.9 °F 61.0 °F 81% 29.99 in 10.0 mi NNE 5.8 mph - N/A   Scattered Clouds
2:55 AM 66.9 °F 57.0 °F 70% 29.99 in 10.0 mi NE 9.2 mph - N/A   Partly Cloudy
3:55 AM 64.9 °F 55.0 °F 70% 29.99 in 10.0 mi NE 8.1 mph - N/A   Clear
4:55 AM 64.0 °F 54.0 °F 70% 29.98 in 10.0 mi NE 8.1 mph - N/A   Overcast
5:55 AM 63.0 °F 53.1 °F 70% 30.00 in 10.0 mi NE 8.1 mph - N/A   Mostly Cloudy
6:55 AM 62.1 °F 52.0 °F 70% 30.01 in 10.0 mi NE 8.1 mph - N/A   Mostly Cloudy
7:55 AM 62.1 °F 52.0 °F 70% 30.03 in 10.0 mi NE 6.9 mph - N/A   Mostly Cloudy
8:55 AM 66.0 °F 51.1 °F 59% 30.04 in 10.0 mi NE 5.8 mph - N/A   Scattered Clouds
9:55 AM 68.0 °F 50.0 °F 52% 30.05 in 10.0 mi ENE 10.4 mph - N/A   Scattered Clouds
10:55 AM 70.0 °F 50.0 °F 49% 30.05 in 10.0 mi ENE 8.1 mph - N/A   Mostly Cloudy
11:55 AM 73.0 °F 48.0 °F 41% 30.05 in 10.0 mi NNE 8.1 mph - N/A   Mostly Cloudy
12:55 PM 75.0 °F 46.9 °F 37% 30.05 in 10.0 mi Variable 4.6 mph - N/A   Scattered Clouds
1:55 PM 78.1 °F 46.0 °F 32% 30.04 in 10.0 mi NNW 8.1 mph - N/A   Mostly Cloudy
2:55 PM 73.9 °F 46.0 °F 37% 30.04 in 10.0 mi NNE 5.8 mph - N/A   Mostly Cloudy
3:55 PM 79.0 °F 46.9 °F 32% 30.04 in 10.0 mi NNE 9.2 mph - N/A   Mostly Cloudy
4:55 PM 75.0 °F 48.0 °F 38% 30.05 in 10.0 mi North 16.1 mph - N/A   Mostly Cloudy
5:55 PM 75.0 °F 46.9 °F 37% 30.05 in 10.0 mi North 15.0 mph - N/A   Mostly Cloudy
6:55 PM 72.0 °F 46.9 °F 41% 30.05 in 10.0 mi NNW 15.0 mph - N/A   Mostly Cloudy
7:55 PM 70.0 °F 48.0 °F 46% 30.06 in 10.0 mi North 8.1 mph - N/A   Mostly Cloudy
8:55 PM 69.1 °F 48.0 °F 47% 30.07 in 10.0 mi North 10.4 mph - N/A   Mostly Cloudy
9:55 PM 66.0 °F 46.9 °F 50% 30.09 in 10.0 mi North 8.1 mph - N/A   Overcast
10:55 PM 66.0 °F 46.9 °F 50% 30.09 in 10.0 mi North 9.2 mph - N/A   Overcast
11:55 PM 64.0 °F 46.9 °F 54% 30.10 in 10.0 mi NNE 8.1 mph - N/A   Mostly Cloudy